Flag for Ecuador Weather past 2 weeks in Guayaquil, Ecuador

Now
72 °F

Passing clouds.


Feels Like: 71 °F
Forecast: 70 / 86 °F
Wind: 9 mph from Southwest

Location: Guayaquil / Simon Bolivar

Current Time: Aug 2, 2014 at 1:56:19 AM

Latest Report: Aug 2, 2014 at 1:00 AM


Visibility: N/A

Pressure: 29.89 "Hg

Humidity: 83%

Dew point: 66 °F

Location of GuayaquilLocation

Historic Weather in Guayaquil — Graph

°F

Guayaquil temperature yesterday

Maximum temperature yesterday: 86 °F (at 3:00 PM)
Minimum temperature yesterday: 72 °F (at 12:00 AM)
Average temperature yesterday: 76 °F

Past Weeks' High & Low Weather Summary

 TemperatureHumidityPressure
High88 °F (Jul 21, 3:00 PM)88% (Jul 22, 4:00 AM)29.92 "Hg (Jul 22, 4:00 AM)
Low70 °F (Jul 22, 4:00 AM)52% (Jul 21, 3:00 PM)29.71 "Hg (Jul 24, 3:00 PM)
Average77 °F72%29.84 "Hg
* Reported Midnight between Jul 17 and Jul 18 — Midnight between Aug 1 and Aug 2, Guayaquil, Weather by CustomWeather, © 2014

Note: Actual official high and low records may vary slightly from our data, if they occured in-between our weather recording intervals... More about our weather records

Advertising

Guayaquil weather history for previous 24 hours

 ConditionsComfort  
Time TempWeatherWind HumidityBarometerVisibility
12:00 AM
Aug 2
72 °FPassing clouds.15 mph83%29.89 "HgN/A
11:00 PM
Aug 1
72 °FPartly cloudy.14 mph83%29.89 "HgN/A
10:00 PM72 °FPassing clouds.14 mph83%29.89 "HgN/A
9:00 PM73 °FPassing clouds.22 mph78%29.86 "HgN/A
8:00 PM75 °FClear.15 mph74%29.86 "Hg10 mi
7:00 PM77 °FPassing clouds.10 mph74%29.80 "HgN/A
6:00 PM79 °FPassing clouds.10 mph70%29.80 "HgN/A
5:00 PM82 °FPassing clouds.10 mph62%29.77 "HgN/A
4:00 PM84 °FPassing clouds.12 mph58%29.77 "HgN/A
3:00 PM86 °FScattered clouds.13 mph55%29.80 "HgN/A
2:00 PM84 °FScattered clouds.12 mph62%29.80 "HgN/A
1:00 PM82 °FBroken clouds.10 mph66%29.83 "HgN/A
12:00 PM82 °FBroken clouds.8 mph62%29.86 "HgN/A
10:00 AM77 °FScattered clouds.9 mph74%29.89 "HgN/A
9:00 AM75 °FPartly sunny.9 mph78%29.89 "HgN/A
8:00 AM73 °FPartly sunny.7 mph83%29.89 "HgN/A
7:00 AM72 °FBroken clouds.8 mph88%29.86 "HgN/A
6:00 AM72 °FPassing clouds.9 mph88%29.83 "HgN/A
5:00 AM72 °FPassing clouds.12 mph88%29.80 "HgN/A
4:00 AM72 °FPassing clouds.14 mph88%29.80 "HgN/A
3:00 AM72 °FPassing clouds.10 mph83%29.80 "HgN/A
2:00 AM72 °FPassing clouds.12 mph83%29.83 "HgN/A
1:00 AM72 °FPassing clouds.16 mph83%29.83 "HgN/A
Weather by CustomWeather, © 2014

See weather overviewHow to use our weather pages